TOM105 LPPR-LEPA

Flight info

Callsign TOM105
Flight time 1h 26m
Altitude 37000
Route PESUL DCT RIVRO DCT BARDI M191 DIPOL M871 NVS DCT NANDO DCT MINGU DCT ABOSI DCT MABUX DCT RETBA DCT MOPIR DCT LASPO M871 GODOX
Aircraft B738/M-SDE2E3FGHIRWXY/LB1

Departure

Time 2026-05-05 18:00
Airport Francisco de Sá Carneiro Airport (LPPR)

Arrival

Time 2026-05-05 19:27
Airport Palma de Mallorca Airport (LEPA)
Time Latitude Longitude Altitude Speed Heading
2026-05-05 17:24 41.23683 -8.67256 235 ft 0 kts 83°
2026-05-05 17:49 41.23681 -8.67274 238 ft 2 kts 83°
2026-05-05 17:49 41.23679 -8.67296 237 ft 2 kts 83°
2026-05-05 17:50 41.23678 -8.67318 237 ft 2 kts 83°
2026-05-05 17:50 41.23679 -8.67339 236 ft 2 kts 115°
2026-05-05 17:50 41.23687 -8.67355 233 ft 0 kts 143°
2026-05-05 17:56 41.23682 -8.67350 234 ft 2 kts 147°
2026-05-05 17:56 41.23662 -8.67355 233 ft 4 kts 211°
2026-05-05 17:57 41.23648 -8.67404 231 ft 9 kts 253°
2026-05-05 17:57 41.23625 -8.67522 229 ft 16 kts 259°
2026-05-05 17:57 41.23607 -8.67642 228 ft 2 kts 258°
2026-05-05 17:57 41.23607 -8.67644 228 ft 0 kts 258°
2026-05-05 17:58 41.23606 -8.67647 228 ft 1 kts 258°
2026-05-05 17:58 41.23602 -8.67674 228 ft 5 kts 258°
2026-05-05 17:59 41.23591 -8.67744 228 ft 10 kts 258°
2026-05-05 17:59 41.23635 -8.67817 226 ft 13 kts 343°
2026-05-05 17:59 41.23656 -8.67824 225 ft 0 kts 349°
2026-05-05 17:59 41.23794 -8.67859 219 ft 56 kts 349°
2026-05-05 18:00 41.24414 -8.68023 213 ft 123 kts 350°
2026-05-05 18:00 41.25436 -8.68284 271 ft 171 kts 346°
2026-05-05 18:00 41.26681 -8.68625 779 ft 192 kts 346°
2026-05-05 18:00 41.28006 -8.69093 1426 ft 201 kts 343°
2026-05-05 18:01 41.29363 -8.69620 2050 ft 206 kts 342°
2026-05-05 18:01 41.30766 -8.70116 2707 ft 211 kts 346°
2026-05-05 18:01 41.32239 -8.70419 3346 ft 219 kts 352°
2026-05-05 18:01 41.33757 -8.70677 4045 ft 222 kts 350°
2026-05-05 18:02 41.35294 -8.71005 4586 ft 236 kts 349°
2026-05-05 18:02 41.36971 -8.71411 5162 ft 249 kts 348°
2026-05-05 18:02 41.38687 -8.71836 6034 ft 251 kts 352°
2026-05-05 18:02 41.40435 -8.71589 6815 ft 260 kts 17°
2026-05-05 18:03 41.41986 -8.70305 7593 ft 269 kts 42°
2026-05-05 18:03 41.43052 -8.68212 8335 ft 281 kts 65°
2026-05-05 18:03 41.43553 -8.65654 9140 ft 287 kts 75°
2026-05-05 18:03 41.43903 -8.63012 9898 ft 294 kts 83°
2026-05-05 18:04 41.43650 -8.60261 10445 ft 311 kts 105°
2026-05-05 18:04 41.42805 -8.57477 10640 ft 336 kts 113°
2026-05-05 18:04 41.41767 -8.54574 10895 ft 356 kts 114°
2026-05-05 18:04 41.40656 -8.51584 11456 ft 364 kts 115°
2026-05-05 18:05 41.39538 -8.48585 12166 ft 367 kts 115°
2026-05-05 18:05 41.38401 -8.45512 12897 ft 371 kts 115°
2026-05-05 18:05 41.37265 -8.42410 13597 ft 375 kts 114°
2026-05-05 18:05 41.36118 -8.39253 14224 ft 381 kts 114°
2026-05-05 18:06 41.34964 -8.36061 14792 ft 386 kts 114°
2026-05-05 18:06 41.34567 -8.34962 14993 ft 388 kts 114°
2026-05-05 18:06 41.33004 -8.30621 15742 ft 396 kts 114°
2026-05-05 18:06 41.31803 -8.27285 16316 ft 402 kts 114°
2026-05-05 18:07 41.30589 -8.23915 16902 ft 407 kts 114°
2026-05-05 18:07 41.29359 -8.20503 17466 ft 412 kts 114°
2026-05-05 18:07 41.28111 -8.17044 17992 ft 418 kts 114°
2026-05-05 18:07 41.26843 -8.13534 18501 ft 423 kts 114°
2026-05-05 18:08 41.25560 -8.09989 18993 ft 427 kts 114°
2026-05-05 18:08 41.24266 -8.06418 19536 ft 430 kts 114°
2026-05-05 18:08 41.22964 -8.02829 20070 ft 433 kts 114°
2026-05-05 18:08 41.21646 -7.99203 20563 ft 437 kts 114°
2026-05-05 18:09 41.20339 -7.95609 21053 ft 441 kts 115°
2026-05-05 18:09 41.18998 -7.91925 21571 ft 444 kts 115°
2026-05-05 18:09 41.17647 -7.88220 22047 ft 448 kts 115°
2026-05-05 18:09 41.16285 -7.84489 22490 ft 452 kts 115°
2026-05-05 18:10 41.14904 -7.80711 22937 ft 456 kts 115°
2026-05-05 18:10 41.13509 -7.76900 23381 ft 460 kts 115°
2026-05-05 18:10 41.12105 -7.73071 23788 ft 463 kts 115°
2026-05-05 18:10 41.10688 -7.69212 24174 ft 466 kts 116°
2026-05-05 18:11 41.09264 -7.65337 24591 ft 468 kts 116°
2026-05-05 18:11 41.07833 -7.61449 24997 ft 469 kts 116°
2026-05-05 18:11 41.06398 -7.57554 25342 ft 473 kts 116°
2026-05-05 18:11 41.04946 -7.53621 25662 ft 476 kts 116°
2026-05-05 18:12 41.03482 -7.49659 26021 ft 479 kts 116°
2026-05-05 18:12 41.02014 -7.45690 26415 ft 481 kts 117°
2026-05-05 18:12 41.00537 -7.41703 26786 ft 483 kts 117°
2026-05-05 18:12 40.99065 -7.37736 27108 ft 486 kts 117°
2026-05-05 18:13 40.97578 -7.33736 27418 ft 488 kts 117°
2026-05-05 18:13 40.96074 -7.29692 27744 ft 491 kts 117°
2026-05-05 18:13 40.94539 -7.25573 28078 ft 493 kts 117°
2026-05-05 18:13 40.93022 -7.21507 28369 ft 495 kts 117°
2026-05-05 18:14 40.91491 -7.17409 28687 ft 497 kts 117°
2026-05-05 18:14 40.89952 -7.13296 28992 ft 499 kts 118°
2026-05-05 18:14 40.88408 -7.09174 29296 ft 501 kts 118°
2026-05-05 18:14 40.86856 -7.05039 29596 ft 503 kts 118°
2026-05-05 18:15 40.85297 -7.00888 29885 ft 505 kts 118°
2026-05-05 18:15 40.83729 -6.96723 30141 ft 507 kts 118°
2026-05-05 18:15 40.82153 -6.92540 30375 ft 509 kts 118°
2026-05-05 18:15 40.80574 -6.88355 30709 ft 508 kts 118°
2026-05-05 18:16 40.78999 -6.84183 31102 ft 505 kts 118°
2026-05-05 18:16 40.77437 -6.80055 31505 ft 502 kts 118°
2026-05-05 18:16 40.75875 -6.75930 31853 ft 501 kts 118°
2026-05-05 18:16 40.74315 -6.71821 32160 ft 501 kts 118°
2026-05-05 18:17 40.72758 -6.67724 32481 ft 499 kts 118°
2026-05-05 18:17 40.71197 -6.63622 32835 ft 498 kts 118°
2026-05-05 18:17 40.69648 -6.59556 33177 ft 496 kts 119°
2026-05-05 18:17 40.68097 -6.55492 33492 ft 495 kts 119°
2026-05-05 18:18 40.66551 -6.51445 33781 ft 495 kts 119°
2026-05-05 18:18 40.65002 -6.47397 34068 ft 494 kts 119°
2026-05-05 18:18 40.63436 -6.43308 34325 ft 493 kts 119°
2026-05-05 18:18 40.61910 -6.39329 34529 ft 493 kts 119°
2026-05-05 18:19 40.60361 -6.35299 34715 ft 494 kts 119°
2026-05-05 18:19 40.58955 -6.31167 34895 ft 496 kts 111°
2026-05-05 18:19 40.57978 -6.26809 35111 ft 497 kts 102°
2026-05-05 18:19 40.57471 -6.22315 35333 ft 497 kts 97°
2026-05-05 18:20 40.57071 -6.17801 35529 ft 497 kts 97°
2026-05-05 18:20 40.56682 -6.13272 35684 ft 498 kts 97°
2026-05-05 18:20 40.56276 -6.08733 35866 ft 498 kts 97°
2026-05-05 18:20 40.55850 -6.04220 36081 ft 498 kts 98°
2026-05-05 18:21 40.55406 -5.99705 36273 ft 497 kts 98°
2026-05-05 18:21 40.54954 -5.95203 36386 ft 498 kts 98°
2026-05-05 18:21 40.54497 -5.90679 36550 ft 499 kts 98°
2026-05-05 18:21 40.54047 -5.86218 36743 ft 498 kts 98°
2026-05-05 18:22 40.53591 -5.81705 36943 ft 498 kts 98°
2026-05-05 18:22 40.52675 -5.72635 36981 ft 501 kts 98°
2026-05-05 18:23 40.51757 -5.63556 36970 ft 499 kts 98°
2026-05-05 18:23 40.50837 -5.54528 36982 ft 497 kts 98°
2026-05-05 18:24 40.49913 -5.45535 36984 ft 496 kts 98°
2026-05-05 18:24 40.48984 -5.36567 36979 ft 495 kts 98°
2026-05-05 18:25 40.48049 -5.27609 36989 ft 495 kts 98°
2026-05-05 18:25 40.47103 -5.18627 36990 ft 497 kts 99°
2026-05-05 18:26 40.46145 -5.09589 36969 ft 500 kts 98°
2026-05-05 18:26 40.45179 -5.00541 36974 ft 501 kts 99°
2026-05-05 18:27 40.44202 -4.91465 36972 ft 503 kts 99°
2026-05-05 18:27 40.43221 -4.82410 36958 ft 504 kts 99°
2026-05-05 18:28 40.41723 -4.68720 36957 ft 506 kts 99°
2026-05-05 18:28 40.40721 -4.59551 36955 ft 507 kts 99°
2026-05-05 18:29 40.39720 -4.50376 36941 ft 507 kts 99°
2026-05-05 18:29 40.38720 -4.41269 36945 ft 507 kts 99°
2026-05-05 18:30 40.37699 -4.32053 36939 ft 507 kts 99°
2026-05-05 18:30 40.36622 -4.22922 36941 ft 505 kts 102°
2026-05-05 18:31 40.35113 -4.13936 36952 ft 504 kts 105°
2026-05-05 18:31 40.33484 -4.05048 36939 ft 504 kts 105°
2026-05-05 18:32 40.31870 -3.96118 36937 ft 503 kts 105°
2026-05-05 18:32 40.30285 -3.87184 36941 ft 503 kts 105°
2026-05-05 18:33 40.28699 -3.78219 36937 ft 503 kts 105°
2026-05-05 18:33 40.27112 -3.69298 36938 ft 503 kts 105°
2026-05-05 18:34 40.25515 -3.60373 36936 ft 503 kts 105°
2026-05-05 18:34 40.23911 -3.51457 36942 ft 503 kts 105°
2026-05-05 18:35 40.22299 -3.42537 36937 ft 504 kts 105°
2026-05-05 18:35 40.20679 -3.33615 36933 ft 505 kts 105°
2026-05-05 18:36 40.19057 -3.24727 36938 ft 505 kts 105°
2026-05-05 18:36 40.17418 -3.15785 36933 ft 506 kts 105°
2026-05-05 18:37 40.15769 -3.06830 36940 ft 506 kts 106°
2026-05-05 18:37 40.14116 -2.97890 36931 ft 507 kts 106°
2026-05-05 18:38 40.12452 -2.88938 36934 ft 507 kts 106°
2026-05-05 18:38 40.10775 -2.79962 36930 ft 508 kts 106°
2026-05-05 18:39 40.09096 -2.71006 36926 ft 508 kts 106°
2026-05-05 18:39 40.07405 -2.62035 36939 ft 507 kts 106°
2026-05-05 18:40 40.05713 -2.53097 36931 ft 507 kts 107°
2026-05-05 18:40 40.04012 -2.44154 36943 ft 507 kts 107°
2026-05-05 18:41 40.02318 -2.35283 36938 ft 507 kts 107°
2026-05-05 18:41 40.00607 -2.26360 36932 ft 506 kts 107°
2026-05-05 18:42 39.98893 -2.17462 36936 ft 506 kts 107°
2026-05-05 18:42 39.97313 -2.10144 36933 ft 504 kts 110°
2026-05-05 18:43 39.95225 -2.01445 36930 ft 503 kts 111°
2026-05-05 18:43 39.93137 -1.92728 36926 ft 503 kts 110°
2026-05-05 18:44 39.91086 -1.84013 36928 ft 503 kts 110°
2026-05-05 18:44 39.89043 -1.75303 36932 ft 503 kts 110°
2026-05-05 18:45 39.86995 -1.66619 36928 ft 503 kts 110°
2026-05-05 18:45 39.84920 -1.57861 36922 ft 503 kts 110°
2026-05-05 18:46 39.82856 -1.49177 36934 ft 503 kts 111°
2026-05-05 18:46 39.80771 -1.40452 36939 ft 504 kts 111°
2026-05-05 18:47 39.78349 -1.32020 36930 ft 493 kts 129°
2026-05-05 18:47 39.76242 -1.28600 36975 ft 479 kts 143°
2026-05-05 18:47 39.73673 -1.25939 36957 ft 465 kts 157°
2026-05-05 18:48 39.67893 -1.22496 36968 ft 456 kts 165°
2026-05-05 18:48 39.62049 -1.19208 36958 ft 460 kts 163°
2026-05-05 18:49 39.56363 -1.15239 36941 ft 476 kts 148°
2026-05-05 18:49 39.53920 -1.12276 36944 ft 488 kts 137°
2026-05-05 18:49 39.51920 -1.08663 36935 ft 498 kts 125°
2026-05-05 18:50 39.48616 -1.00745 36919 ft 501 kts 123°
2026-05-05 18:50 39.45260 -0.92823 36895 ft 501 kts 125°
2026-05-05 18:51 39.41809 -0.84970 36869 ft 501 kts 125°
2026-05-05 18:51 39.38393 -0.77198 36871 ft 499 kts 125°
2026-05-05 18:52 39.34954 -0.69417 36870 ft 498 kts 125°
2026-05-05 18:52 39.31522 -0.61662 36872 ft 496 kts 126°
2026-05-05 18:53 39.29984 -0.57657 36860 ft 501 kts 115°
2026-05-05 18:53 39.28994 -0.53327 36883 ft 506 kts 105°
2026-05-05 18:53 39.28533 -0.48809 36853 ft 509 kts 94°
2026-05-05 18:53 39.28648 -0.44240 36895 ft 509 kts 88°
2026-05-05 18:54 39.29227 -0.35119 36872 ft 508 kts 87°
2026-05-05 18:54 39.29793 -0.26047 36859 ft 506 kts 88°
2026-05-05 18:55 39.30282 -0.17015 36857 ft 504 kts 88°
2026-05-05 18:55 39.30737 -0.07965 36855 ft 504 kts 89°
2026-05-05 18:56 39.30959 -0.03475 36385 ft 510 kts 89°
2026-05-05 18:56 39.31185 0.01101 35869 ft 509 kts 89°
2026-05-05 18:56 39.31414 0.05720 35273 ft 510 kts 89°
2026-05-05 18:56 39.31636 0.10234 34671 ft 511 kts 89°
2026-05-05 18:57 39.31860 0.14821 34023 ft 513 kts 90°
2026-05-05 18:57 39.32082 0.19426 33460 ft 512 kts 89°
2026-05-05 18:57 39.32303 0.24023 32811 ft 513 kts 89°
2026-05-05 18:57 39.32522 0.28611 32390 ft 508 kts 89°
2026-05-05 18:58 39.32737 0.33151 31921 ft 505 kts 89°
2026-05-05 18:58 39.32950 0.37669 31471 ft 502 kts 89°
2026-05-05 18:58 39.33158 0.42149 31028 ft 499 kts 89°
2026-05-05 18:58 39.33363 0.46619 30494 ft 498 kts 89°
2026-05-05 18:59 39.33566 0.51081 30008 ft 497 kts 89°
2026-05-05 18:59 39.33767 0.55534 29479 ft 495 kts 89°
2026-05-05 18:59 39.33964 0.59946 28992 ft 491 kts 89°
2026-05-05 18:59 39.34159 0.64325 28528 ft 487 kts 89°
2026-05-05 19:00 39.34351 0.68675 28071 ft 482 kts 89°
2026-05-05 19:00 39.34537 0.72936 27620 ft 479 kts 89°
2026-05-05 19:00 39.34725 0.77262 27169 ft 475 kts 89°
2026-05-05 19:00 39.34907 0.81511 26722 ft 471 kts 89°
2026-05-05 19:01 39.35086 0.85729 26287 ft 468 kts 89°
2026-05-05 19:01 39.35261 0.89855 25855 ft 464 kts 89°
2026-05-05 19:01 39.35434 0.94015 25422 ft 461 kts 89°
2026-05-05 19:01 39.35606 0.98149 24989 ft 458 kts 89°
2026-05-05 19:02 39.35774 1.02251 24558 ft 456 kts 89°
2026-05-05 19:02 39.35941 1.06334 24117 ft 453 kts 89°
2026-05-05 19:02 39.36105 1.10391 23676 ft 451 kts 89°
2026-05-05 19:02 39.36266 1.14433 23194 ft 449 kts 89°
2026-05-05 19:03 39.36426 1.18445 22733 ft 446 kts 89°
2026-05-05 19:03 39.36584 1.22441 22269 ft 443 kts 89°
2026-05-05 19:03 39.36738 1.26392 21842 ft 439 kts 89°
2026-05-05 19:03 39.36890 1.30320 21407 ft 436 kts 90°
2026-05-05 19:04 39.37040 1.34215 20983 ft 432 kts 90°
2026-05-05 19:04 39.37187 1.38075 20574 ft 429 kts 90°
2026-05-05 19:04 39.37352 1.41920 20144 ft 427 kts 87°
2026-05-05 19:04 39.37724 1.45704 19810 ft 423 kts 83°
2026-05-05 19:05 39.38231 1.49447 19405 ft 421 kts 82°
2026-05-05 19:05 39.38773 1.53151 18995 ft 418 kts 81°
2026-05-05 19:05 39.39310 1.56847 18563 ft 417 kts 82°
2026-05-05 19:05 39.39827 1.60527 18125 ft 415 kts 82°
2026-05-05 19:06 39.40324 1.64200 17659 ft 413 kts 83°
2026-05-05 19:06 39.40805 1.67846 17221 ft 410 kts 83°
2026-05-05 19:06 39.41276 1.71464 16793 ft 406 kts 83°
2026-05-05 19:06 39.41734 1.75010 16389 ft 403 kts 83°
2026-05-05 19:07 39.42192 1.78573 15975 ft 400 kts 83°
2026-05-05 19:07 39.42645 1.82106 15569 ft 397 kts 83°
2026-05-05 19:07 39.43095 1.85618 15170 ft 394 kts 83°
2026-05-05 19:07 39.43541 1.89106 14780 ft 391 kts 83°
2026-05-05 19:08 39.43982 1.92561 14400 ft 388 kts 83°
2026-05-05 19:08 39.44417 1.95965 14218 ft 378 kts 83°
2026-05-05 19:08 39.44839 1.99284 14050 ft 369 kts 83°
2026-05-05 19:08 39.45257 2.02529 13893 ft 361 kts 81°
2026-05-05 19:09 39.45882 2.05646 13702 ft 355 kts 74°
2026-05-05 19:09 39.46676 2.08638 13499 ft 349 kts 71°
2026-05-05 19:09 39.47501 2.11565 13312 ft 342 kts 71°
2026-05-05 19:09 39.48304 2.14436 13114 ft 337 kts 71°
2026-05-05 19:10 39.49081 2.17268 12728 ft 331 kts 72°
2026-05-05 19:10 39.49832 2.20064 12301 ft 326 kts 72°
2026-05-05 19:10 39.50564 2.22826 11869 ft 323 kts 72°
2026-05-05 19:10 39.51284 2.25567 11444 ft 319 kts 71°
2026-05-05 19:11 39.51993 2.28273 11027 ft 315 kts 71°
2026-05-05 19:11 39.52693 2.30949 10615 ft 312 kts 71°
2026-05-05 19:11 39.53385 2.33597 10211 ft 309 kts 71°
2026-05-05 19:11 39.54069 2.36223 9810 ft 306 kts 70°
2026-05-05 19:12 39.54748 2.38819 9361 ft 303 kts 69°
2026-05-05 19:12 39.55680 2.41235 8922 ft 298 kts 54°
2026-05-05 19:12 39.56841 2.43435 8496 ft 295 kts 52°
2026-05-05 19:12 39.58026 2.45600 8060 ft 296 kts 52°
2026-05-05 19:13 39.59203 2.47749 7943 ft 286 kts 52°
2026-05-05 19:13 39.60331 2.49830 7911 ft 277 kts 52°
2026-05-05 19:13 39.61426 2.51863 7895 ft 272 kts 52°
2026-05-05 19:13 39.62490 2.53851 7926 ft 264 kts 52°
2026-05-05 19:14 39.63533 2.55805 7927 ft 265 kts 52°
2026-05-05 19:14 39.64589 2.57787 7920 ft 268 kts 52°
2026-05-05 19:14 39.65645 2.59775 7912 ft 264 kts 53°
2026-05-05 19:14 39.66675 2.61721 7919 ft 260 kts 52°
2026-05-05 19:15 39.67685 2.63633 7912 ft 259 kts 52°
2026-05-05 19:15 39.68570 2.65656 7896 ft 258 kts 69°
2026-05-05 19:15 39.69089 2.67860 7808 ft 255 kts 72°
2026-05-05 19:15 39.69590 2.70055 7576 ft 249 kts 72°
2026-05-05 19:16 39.70074 2.72180 7381 ft 241 kts 72°
2026-05-05 19:16 39.70540 2.74234 7180 ft 234 kts 72°
2026-05-05 19:16 39.71000 2.76242 6987 ft 229 kts 72°
2026-05-05 19:16 39.71441 2.78198 6773 ft 222 kts 72°
2026-05-05 19:17 39.71863 2.80106 6597 ft 218 kts 72°
2026-05-05 19:17 39.72282 2.81994 6425 ft 218 kts 72°
2026-05-05 19:17 39.72698 2.83886 6220 ft 218 kts 72°
2026-05-05 19:17 39.73113 2.85779 6088 ft 217 kts 72°
2026-05-05 19:18 39.73533 2.87654 5997 ft 214 kts 71°
2026-05-05 19:18 39.73941 2.89493 5993 ft 211 kts 72°
2026-05-05 19:18 39.74344 2.91329 6004 ft 213 kts 72°
2026-05-05 19:18 39.74753 2.93187 5996 ft 214 kts 72°
2026-05-05 19:19 39.75162 2.95040 5986 ft 213 kts 72°
2026-05-05 19:19 39.75566 2.96885 5978 ft 211 kts 72°
2026-05-05 19:19 39.75966 2.98720 5982 ft 210 kts 72°
2026-05-05 19:19 39.76333 3.00567 5969 ft 211 kts 83°
2026-05-05 19:20 39.76073 3.02410 5944 ft 211 kts 121°
2026-05-05 19:20 39.75083 3.03709 5695 ft 201 kts 160°
2026-05-05 19:20 39.73782 3.03968 5455 ft 183 kts 196°
2026-05-05 19:20 39.72576 3.03579 5233 ft 177 kts 201°
2026-05-05 19:21 39.71362 3.03122 5031 ft 186 kts 202°
2026-05-05 19:21 39.70096 3.02634 4810 ft 193 kts 202°
2026-05-05 19:21 39.68795 3.02120 4585 ft 195 kts 202°
2026-05-05 19:21 39.67662 3.01295 4374 ft 181 kts 235°
2026-05-05 19:22 39.66942 2.99986 4175 ft 180 kts 237°
2026-05-05 19:22 39.66218 2.98658 3956 ft 181 kts 239°
2026-05-05 19:22 39.65759 2.97753 3798 ft 181 kts 240°
2026-05-05 19:22 39.65090 2.96379 3551 ft 179 kts 242°
2026-05-05 19:23 39.64442 2.95022 3331 ft 176 kts 241°
2026-05-05 19:23 39.63798 2.93662 3109 ft 177 kts 242°
2026-05-05 19:23 39.62944 2.91854 2787 ft 178 kts 241°
2026-05-05 19:23 39.62505 2.90926 2627 ft 178 kts 240°
2026-05-05 19:24 39.61854 2.89548 2390 ft 179 kts 240°
2026-05-05 19:24 39.61215 2.88195 2150 ft 176 kts 240°
2026-05-05 19:24 39.60589 2.86871 1912 ft 167 kts 240°
2026-05-05 19:24 39.59999 2.85620 1724 ft 159 kts 239°
2026-05-05 19:25 39.59428 2.84412 1520 ft 153 kts 239°
2026-05-05 19:25 39.58870 2.83228 1296 ft 154 kts 238°
2026-05-05 19:25 39.58315 2.82051 1088 ft 151 kts 239°
2026-05-05 19:25 39.57775 2.80906 881 ft 147 kts 238°
2026-05-05 19:26 39.57240 2.79773 677 ft 146 kts 238°
2026-05-05 19:26 39.56720 2.78671 467 ft 143 kts 238°
2026-05-05 19:26 39.56206 2.77576 283 ft 142 kts 238°
2026-05-05 19:26 39.55695 2.76478 118 ft 143 kts 238°
2026-05-05 19:27 39.55183 2.75400 26 ft 134 kts 238°
2026-05-05 19:27 39.54771 2.74541 27 ft 90 kts 238°
2026-05-05 19:27 39.54579 2.74109 30 ft 31 kts 248°
2026-05-05 19:27 39.54551 2.73879 30 ft 20 kts 268°
2026-05-05 19:28 39.54550 2.73820 30 ft 0 kts 269°
2026-05-05 19:31 39.54550 2.73819 30 ft 1 kts 269°
2026-05-05 19:31 39.54559 2.73757 31 ft 11 kts 302°
2026-05-05 19:31 39.54633 2.73799 30 ft 17 kts 59°
2026-05-05 19:32 39.54692 2.73927 29 ft 9 kts 58°
2026-05-05 19:32 39.54741 2.74030 29 ft 17 kts 58°
2026-05-05 19:32 39.54781 2.74106 28 ft 9 kts 44°
2026-05-05 19:32 39.54859 2.74099 28 ft 15 kts 332°
2026-05-05 19:33 39.54942 2.74026 27 ft 10 kts 289°
2026-05-05 19:33 39.54933 2.73942 27 ft 4 kts 292°
2026-05-05 19:33 39.54940 2.73931 27 ft 5 kts 317°
2026-05-05 19:33 39.54946 2.73897 27 ft 6 kts 250°
2026-05-05 19:34 39.54916 2.73829 28 ft 9 kts 241°
2026-05-05 19:34 39.54911 2.73814 28 ft 0 kts 246°
2026-05-05 19:35 39.54893 2.73806 28 ft 5 kts 207°
2026-05-05 19:35 39.54887 2.73796 28 ft 0 kts 240°